Date,TemperatureHighF,TemperatureAvgF,TemperatureLowF,DewpointHighF,DewpointAvgF,DewpointLowF,HumidityHigh,HumidityAvg,HumidityLow,PressureMaxIn,PressureMinIn,WindSpeedMaxMPH,WindSpeedAvgMPH,GustSpeedMaxMPH,PrecipitationSumIn
2014-1-1,65.3,45.1,31.8,38.5,33.3,27.8,88,66,34,30.23,30.15,6,0,6,0.00
2014-1-2,67.0,47.3,35.5,40.5,35.2,30.1,83,65,36,30.20,30.07,8,0,8,0.00
2014-1-3,70.0,49.3,36.8,41.1,37.2,32.8,87,66,33,30.10,29.97,7,0,7,0.00
2014-1-4,69.1,47.3,35.4,42.2,35.2,27.5,92,66,32,30.10,30.00,8,1,8,0.00
2014-1-5,70.5,47.4,35.1,33.8,25.5,18.4,81,48,14,30.22,30.09,8,1,8,0.00
2014-1-6,59.5,45.8,36.4,33.5,27.5,20.7,66,50,28,30.30,30.18,7,0,7,0.00
2014-1-7,63.9,48.5,38.3,46.2,34.7,27.2,88,62,28,30.23,30.13,9,0,9,0.00
2014-1-8,62.0,48.2,39.3,50.3,44.4,38.0,96,87,64,30.24,30.14,13,1,13,0.00
2014-1-9,65.2,51.9,43.5,48.6,42.4,35.9,95,72,34,30.26,30.18,18,3,18,0.01
2014-1-10,67.5,49.7,38.6,48.1,42.3,36.5,94,77,49,30.32,30.18,10,1,11,0.00
2014-1-11,53.8,45.4,39.1,52.4,43.7,37.8,97,94,86,30.29,30.15,2,0,7,0.09
2014-1-12,62.2,51.2,38.6,47.0,38.5,31.6,97,67,35,30.42,30.27,27,3,27,0.01
2014-1-13,65.5,51.8,36.9,42.9,37.4,33.1,88,61,37,30.48,30.33,17,2,17,0.00
2014-1-14,68.0,45.7,32.9,40.8,34.8,30.5,94,70,31,30.48,30.34,8,1,8,0.00
2014-1-15,71.1,47.9,35.0,40.8,33.8,29.4,82,61,26,30.37,30.22,9,1,9,0.00
2014-1-16,71.8,48.3,33.1,37.8,32.1,27.8,86,58,24,30.26,30.14,8,1,8,0.00
2014-1-17,72.2,48.9,35.1,40.1,32.0,25.4,72,54,27,30.22,30.13,8,0,8,0.00
2014-1-18,72.3,48.4,34.3,35.1,30.4,27.1,79,54,22,30.20,30.08,8,0,8,0.00
2014-1-19,70.5,45.1,33.5,36.2,29.9,25.5,73,58,27,30.16,30.08,10,1,10,0.00
2014-1-20,70.1,47.1,33.9,35.8,30.6,26.0,75,56,26,30.26,30.13,6,0,7,0.00
2014-1-21,72.2,47.7,32.7,34.4,29.1,25.0,74,52,22,30.29,30.17,5,0,5,0.00
2014-1-22,74.5,49.5,35.2,33.8,28.3,23.9,65,47,19,30.19,29.93,4,0,6,0.00
2014-1-23,73.7,51.5,35.8,37.9,29.5,20.3,87,50,14,30.03,29.87,17,1,17,0.00
2014-1-24,72.3,51.7,40.1,39.1,33.6,28.4,72,52,26,30.28,30.02,8,1,8,0.00
2014-1-25,73.8,54.3,42.7,40.4,35.3,31.8,75,52,24,30.28,30.13,8,1,8,0.00
2014-1-26,72.0,52.4,39.4,42.0,35.3,30.9,81,56,26,30.15,30.03,7,1,7,0.00
2014-1-27,63.9,48.7,35.3,49.0,42.5,33.5,96,80,55,30.20,30.08,9,0,9,0.00
2014-1-28,68.3,56.5,46.9,57.1,50.9,43.8,92,82,58,30.27,30.19,12,1,12,0.00
2014-1-29,59.6,55.9,50.5,56.5,52.4,46.4,94,88,75,30.21,29.99,11,1,11,0.03
2014-1-30,63.4,52.7,46.6,49.0,45.5,41.5,95,78,46,30.00,29.83,14,1,14,0.02
2014-1-31,63.1,49.9,38.3,43.1,33.4,16.1,92,59,18,30.09,29.91,16,3,16,0.00
2014-2-1,60.9,44.0,30.6,36.3,31.9,26.3,91,66,28,30.18,30.07,15,1,15,0.00
2014-2-2,44.5,41.8,35.4,40.8,38.8,33.1,95,89,85,30.07,29.90,10,1,10,0.28
2014-2-3,56.7,42.5,31.2,42.8,36.1,29.9,96,80,48,30.09,29.99,16,2,16,0.01
2014-2-4,54.6,42.8,33.8,39.6,35.2,31.2,92,76,54,30.18,30.08,9,1,9,0.00
2014-2-5,53.6,42.2,29.2,41.6,36.2,27.3,95,81,50,30.22,30.08,10,1,10,0.27
2014-2-6,50.2,45.1,42.6,47.1,43.2,41.0,95,93,87,30.09,29.94,5,0,5,0.83
2014-2-7,52.1,50.9,48.9,51.3,49.9,48.1,97,96,94,30.08,29.99,14,2,14,2.94
2014-2-8,57.2,54.0,51.0,56.2,53.1,50.2,98,97,95,30.12,30.04,13,2,13,5.98
2014-2-9,57.8,56.5,54.1,57.0,55.5,53.1,97,96,94,30.14,30.05,14,1,14,3.10
2014-2-10,65.8,54.6,48.1,56.8,52.3,46.8,98,92,68,30.29,30.09,7,0,7,0.02
2014-2-11,64.3,49.6,39.7,54.5,46.8,38.7,97,91,66,30.27,30.17,6,0,6,0.01
2014-2-12,60.4,47.6,43.7,51.7,45.8,42.3,97,94,73,30.30,30.21,8,0,8,0.00
2014-2-13,69.6,57.6,48.9,60.2,54.0,47.8,97,89,69,30.24,30.10,8,1,8,0.00
2014-2-14,63.9,55.7,50.3,56.8,52.1,49.1,97,88,69,30.18,30.06,12,1,12,0.01
2014-2-15,58.8,53.6,49.5,54.1,51.6,47.9,97,93,80,30.06,29.99,13,1,13,0.23
2014-2-16,67.1,51.6,39.2,51.4,43.9,36.9,97,78,41,30.23,30.03,8,1,8,0.01
2014-2-17,63.6,49.2,35.8,47.9,41.1,34.1,96,76,43,30.19,30.11,20,2,20,0.00
2014-2-18,64.3,52.4,40.9,51.0,45.9,38.8,95,79,59,30.22,30.09,13,1,13,0.00
2014-2-19,67.1,54.8,43.9,50.5,44.7,38.3,96,71,38,30.22,30.08,14,1,14,0.00
2014-2-20,69.5,50.7,37.0,46.6,41.2,35.1,94,73,40,30.24,30.12,8,1,8,0.00
2014-2-21,72.5,52.8,38.7,50.6,42.5,37.0,95,72,33,30.14,29.98,6,1,10,0.00
2014-2-22,71.8,52.5,38.8,52.4,43.5,37.2,96,75,41,30.03,29.92,10,1,10,0.00
2014-2-23,72.7,49.5,36.3,53.1,43.0,35.2,97,81,43,30.05,29.95,5,0,6,0.00
2014-2-24,74.2,53.7,37.6,52.0,43.7,35.9,96,73,34,30.02,29.92,9,1,9,0.00
2014-2-25,67.4,50.6,38.2,52.2,45.4,36.6,96,83,55,30.00,29.91,12,1,12,0.00
2014-2-26,55.9,52.8,48.4,54.4,50.6,45.3,97,92,86,29.98,29.67,14,1,14,1.54
2014-2-27,63.1,56.5,52.2,53.0,49.8,46.3,93,79,61,29.90,29.55,13,2,13,0.24
2014-2-28,58.8,53.5,51.0,54.5,50.3,46.0,96,89,63,29.55,29.39,18,2,18,1.36
2014-3-1,64.0,56.5,50.2,52.2,49.6,47.5,95,78,61,29.83,29.50,20,2,20,0.16
2014-3-2,59.9,52.3,47.5,54.9,50.0,46.1,97,92,79,30.18,29.83,5,0,15,0.08
2014-3-3,57.4,52.8,48.6,52.4,50.7,47.1,97,93,81,30.17,30.05,9,1,9,0.69
2014-3-4,63.7,55.7,51.1,56.2,52.7,49.6,97,90,74,30.14,30.06,7,0,7,0.05
2014-3-5,63.7,57.3,52.7,57.8,54.7,51.3,96,91,80,30.11,29.99,10,1,10,0.38
2014-3-6,65.2,55.0,45.8,55.9,50.4,44.0,97,85,62,30.21,30.04,8,1,13,0.00
2014-3-7,70.6,54.2,40.8,51.8,45.8,39.2,96,76,46,30.20,30.09,6,1,9,0.01
2014-3-8,72.3,55.9,40.2,55.7,47.2,38.8,97,75,46,30.21,30.13,9,1,9,0.00
2014-3-9,69.0,60.8,51.7,56.4,51.8,46.3,86,73,61,30.20,30.08,7,1,7,0.00
2014-3-10,71.0,59.0,49.2,54.0,46.6,38.1,93,66,39,30.25,30.10,21,2,21,0.00
2014-3-11,72.7,63.2,52.7,38.6,26.3,17.1,58,26,17,30.22,30.03,31,6,31,0.00
2014-3-12,75.5,64.2,55.1,31.1,25.1,18.6,38,23,16,30.14,30.02,13,4,17,0.00
2014-3-13,78.7,59.0,41.2,45.1,34.9,23.2,86,45,14,30.07,29.96,11,1,13,0.00
2014-3-14,77.7,54.7,38.0,55.0,45.4,36.4,96,74,40,30.23,30.05,7,0,7,0.00
2014-3-15,82.0,58.9,42.1,54.0,45.2,36.3,96,66,22,30.32,30.23,9,1,9,0.00
2014-3-16,81.8,57.5,40.3,51.8,41.6,18.9,93,63,13,30.32,30.17,13,1,13,0.00
2014-3-17,71.8,53.4,43.8,50.4,43.4,36.8,91,71,31,30.21,29.98,17,1,17,0.00
2014-3-18,73.0,59.6,42.4,42.8,32.5,22.9,76,37,24,29.99,29.90,27,2,27,0.00
2014-3-19,74.5,54.3,36.2,45.4,37.6,31.0,84,57,29,30.10,29.97,10,1,10,0.00
2014-3-20,77.1,56.4,41.5,47.1,39.4,27.0,86,58,21,30.07,29.93,12,1,12,0.00
2014-3-21,73.7,49.8,35.9,53.3,42.5,34.3,96,79,40,30.01,29.93,9,1,9,0.00
2014-3-22,73.8,51.4,35.7,51.3,41.4,34.3,97,73,36,30.11,29.99,10,1,10,0.00
2014-3-23,77.5,54.4,37.9,52.9,43.2,35.7,96,70,30,30.18,30.08,11,1,11,0.00
2014-3-24,80.0,56.2,37.8,51.6,39.9,27.6,96,62,21,30.16,30.01,11,1,11,0.00
2014-3-25,62.4,49.5,35.7,54.6,43.1,28.8,92,79,51,30.04,29.86,15,1,15,0.14
2014-3-26,60.7,51.5,45.0,52.7,47.5,42.9,96,87,66,29.98,29.81,14,1,14,0.79
2014-3-27,62.0,52.8,45.1,52.2,48.2,43.8,97,85,65,30.14,29.97,11,0,11,0.21
2014-3-28,63.8,56.3,49.5,55.2,51.6,48.1,96,85,67,30.19,30.11,10,1,11,0.02
2014-3-29,56.4,53.9,45.7,54.5,50.8,43.3,96,89,77,30.12,30.01,6,1,10,1.14
2014-3-30,61.3,49.3,39.1,49.1,43.0,37.8,97,81,55,30.13,30.04,21,2,21,0.01
2014-3-31,52.8,45.1,39.2,47.3,43.1,37.9,97,93,78,30.08,29.83,19,1,19,1.14
2014-4-1,53.7,45.5,40.5,49.3,43.3,39.5,97,92,76,29.94,29.84,20,1,20,0.77
2014-4-2,62.9,49.8,39.6,50.2,43.3,37.6,96,80,49,30.11,29.89,15,1,15,0.00
2014-4-3,62.0,45.6,37.7,48.8,41.7,36.4,97,88,55,30.14,30.09,8,0,8,0.00
2014-4-4,60.1,51.7,45.0,50.9,47.6,43.1,97,87,66,30.07,29.99,13,1,13,0.31
2014-4-5,69.4,54.6,42.9,54.1,47.0,41.0,95,78,45,30.19,30.07,12,1,15,0.01
2014-4-6,81.0,60.8,42.1,58.8,50.1,40.4,97,71,38,30.25,30.10,11,1,11,0.00
2014-4-7,81.7,62.7,45.7,60.7,53.2,44.4,97,75,44,30.17,30.07,9,1,9,0.00
2014-4-8,83.3,64.6,48.8,62.3,54.0,47.0,96,72,36,30.12,30.01,9,1,9,0.00
2014-4-9,81.5,58.3,44.2,61.4,49.7,40.7,97,76,36,30.09,29.97,7,1,7,0.00
2014-4-10,80.4,57.9,42.4,60.4,49.4,40.8,97,77,32,30.04,29.89,6,1,11,0.00
2014-4-11,74.0,55.9,43.6,59.3,50.1,42.0,96,82,56,29.94,29.84,9,1,9,0.00
2014-4-12,69.5,55.4,46.2,54.5,48.8,43.8,93,79,57,29.94,29.85,13,1,13,0.00
2014-4-13,77.3,59.6,49.7,60.7,51.5,46.7,91,76,48,30.05,29.94,13,1,13,0.00
2014-4-14,79.5,56.3,42.3,61.6,50.1,41.0,96,82,49,30.12,30.02,13,1,13,0.00
2014-4-15,79.7,57.2,43.8,61.6,50.6,41.9,96,81,49,30.06,29.88,7,0,7,0.00
2014-4-16,82.9,60.0,43.8,59.3,49.3,42.7,97,73,30,29.93,29.81,7,0,8,0.00
2014-4-17,79.3,61.4,45.3,60.3,49.3,42.6,96,68,39,29.86,29.79,17,2,17,0.00
2014-4-18,76.4,60.5,44.9,56.0,48.0,42.3,91,66,38,29.93,29.85,15,1,15,0.00
2014-4-19,70.5,55.1,40.4,55.6,46.8,37.6,96,77,36,30.12,29.92,16,1,16,0.00
2014-4-20,82.3,60.9,43.4,57.5,46.8,38.9,97,67,23,30.16,30.04,10,1,10,0.00
2014-4-21,75.8,56.4,42.8,48.6,41.4,26.9,85,61,18,30.07,29.96,14,1,14,0.00
2014-4-22,63.1,54.9,48.4,49.8,41.7,34.8,91,62,38,30.12,29.96,21,4,21,0.00
2014-4-23,67.9,56.0,41.1,49.6,42.1,35.3,81,61,37,30.15,30.07,19,2,19,0.00
2014-4-24,69.0,57.9,47.6,55.8,50.9,45.1,93,78,55,30.10,29.98,22,2,22,0.00
2014-4-25,57.1,51.8,42.5,52.9,48.0,40.5,94,87,72,29.97,29.78,8,1,19,0.23
2014-4-26,62.6,50.6,39.3,46.5,41.7,37.4,95,74,42,30.09,29.86,25,3,25,0.01
2014-4-27,65.7,54.2,47.6,53.7,47.3,43.3,95,79,55,30.13,30.04,18,2,18,0.06
2014-4-28,74.5,59.2,44.7,55.4,46.9,41.6,91,67,37,30.24,30.13,15,1,15,0.00
2014-4-29,88.0,66.5,45.2,57.8,48.0,41.0,89,56,22,30.20,30.05,11,1,11,0.00
2014-4-30,89.9,72.0,52.5,58.0,47.9,38.1,87,49,19,30.08,30.00,9,1,9,0.00
2014-5-1,90.9,68.1,47.9,56.7,46.1,33.7,82,50,17,30.09,30.03,8,1,10,0.00
2014-5-2,85.9,64.4,45.4,55.8,45.7,36.4,87,56,20,30.08,29.99,11,1,11,0.00
2014-5-3,67.3,57.1,45.5,53.8,48.4,43.9,96,75,53,30.03,29.95,22,2,22,0.00
2014-5-4,66.3,56.5,45.8,54.6,48.4,42.6,92,75,58,30.06,29.99,24,2,24,0.00
2014-5-5,65.5,56.3,45.4,51.7,46.3,40.9,91,70,51,30.04,29.91,20,3,20,0.00
2014-5-6,72.2,59.9,45.2,51.6,44.7,40.0,83,59,38,29.95,29.83,17,3,19,0.00
2014-5-7,72.0,58.3,43.6,52.1,46.3,40.3,90,66,39,29.98,29.88,14,1,14,0.00
2014-5-8,63.6,56.8,47.3,56.6,51.3,43.6,94,82,59,30.09,29.97,11,1,11,0.05
2014-5-9,69.8,58.8,48.5,54.1,50.2,43.1,97,75,48,30.15,30.07,24,3,24,0.00
2014-5-10,71.8,59.4,44.3,48.7,43.0,39.6,87,57,33,30.13,30.01,22,3,22,0.00
2014-5-11,80.8,66.8,51.2,44.2,37.7,25.1,71,37,14,30.13,30.00,17,3,17,0.00
2014-5-12,86.8,65.1,42.9,53.0,43.3,33.3,87,51,16,30.11,30.04,12,1,12,0.00
2014-5-13,93.1,70.3,47.6,51.2,45.0,40.1,80,45,21,30.14,30.06,8,1,8,0.00
2014-5-14,95.0,73.1,49.9,54.3,45.2,37.8,78,43,16,30.13,30.03,14,1,14,0.00
2014-5-15,93.2,72.7,48.9,50.4,39.4,25.8,68,35,11,30.10,30.03,10,1,10,0.00
2014-5-16,87.0,64.4,44.2,53.5,44.7,34.6,87,55,21,30.07,29.94,16,1,16,0.00
2014-5-17,84.0,63.1,46.7,57.1,49.6,41.6,95,66,31,29.97,29.89,16,1,16,0.00
2014-5-18,72.0,63.0,51.2,55.2,48.6,41.6,79,60,46,29.97,29.90,20,4,20,0.00
2014-5-19,69.4,59.2,48.1,51.6,47.9,44.4,88,67,46,29.94,29.89,27,3,27,0.00
2014-5-20,74.5,59.6,46.2,52.8,48.4,43.3,92,69,44,29.99,29.92,16,1,16,0.00
2014-5-21,81.3,62.3,45.7,58.4,50.6,44.1,95,70,29,29.98,29.87,17,1,17,0.00
2014-5-22,82.7,61.9,45.6,60.6,52.4,43.7,95,74,47,30.01,29.92,13,1,13,0.00
2014-5-23,83.5,63.9,47.8,61.0,53.7,45.6,94,72,45,30.03,29.89,7,1,7,0.00
2014-5-24,89.4,67.7,51.3,61.1,53.6,47.8,89,64,36,29.99,29.88,10,1,10,0.00
2014-5-25,93.8,70.8,47.3,57.3,48.7,42.4,94,53,21,29.98,29.86,19,2,19,0.00
2014-5-26,90.3,72.8,54.9,57.5,49.4,43.1,67,45,21,30.00,29.90,21,2,21,0.00
2014-5-27,86.6,67.2,44.4,50.6,43.6,33.4,92,48,18,30.03,29.93,20,2,20,0.00
2014-5-28,79.9,65.3,49.1,46.1,41.0,35.3,64,43,22,30.07,29.94,18,3,18,0.00
2014-5-29,83.0,66.3,47.5,48.7,40.9,22.3,76,46,13,29.96,29.86,16,2,16,0.00
2014-5-30,78.7,57.1,40.5,51.8,46.1,38.6,95,71,34,29.94,29.88,14,1,14,0.00
2014-5-31,85.9,61.1,42.9,57.1,49.7,40.9,95,70,36,29.98,29.89,9,1,9,0.00
2014-6-1,87.4,63.0,44.3,57.1,49.4,32.2,96,68,16,29.92,29.78,12,1,12,0.00
2014-6-2,74.2,59.6,50.3,56.3,51.2,47.3,92,76,50,29.92,29.81,9,1,9,0.00
2014-6-3,81.8,61.4,50.5,58.9,51.3,47.1,90,72,43,29.96,29.84,11,1,13,0.00
2014-6-4,89.9,65.1,45.0,60.4,50.1,43.4,96,65,27,29.91,29.80,7,1,12,0.00
2014-6-5,85.8,64.1,45.8,60.3,50.7,43.6,95,66,31,29.87,29.77,11,1,11,0.00
2014-6-6,75.2,55.5,50.2,58.4,50.8,47.8,93,85,53,29.85,29.80,9,1,9,0.00
2014-6-7,91.5,65.2,49.7,61.3,52.4,47.3,94,69,27,29.86,29.74,13,0,13,0.00
2014-6-8,101.3,73.3,48.4,62.9,53.0,46.5,95,57,18,29.83,29.70,16,1,16,0.00
2014-6-9,102.3,75.5,53.7,63.5,55.1,45.5,92,57,18,29.76,29.64,14,1,14,0.00
2014-6-10,81.7,64.5,51.2,60.1,55.0,49.5,96,74,46,29.83,29.71,13,2,15,0.00
2014-6-11,74.9,61.5,51.0,57.2,53.5,47.3,90,76,53,29.90,29.82,17,2,17,0.00
2014-6-12,78.8,63.0,51.4,54.2,50.4,46.9,92,67,34,29.96,29.87,17,2,17,0.00
2014-6-13,83.8,67.0,45.4,53.1,48.0,42.6,93,55,27,29.98,29.88,13,1,13,0.00
2014-6-14,88.0,67.1,47.5,54.1,47.0,24.7,91,56,11,29.93,29.80,11,1,13,0.00
2014-6-15,79.4,62.3,44.7,57.2,49.5,42.4,93,66,38,29.81,29.74,13,1,13,0.00
2014-6-16,73.5,57.1,45.3,49.8,46.7,42.9,94,71,38,29.87,29.78,17,1,17,0.00
2014-6-17,81.0,61.9,41.9,47.9,42.4,37.3,92,55,25,29.95,29.86,19,1,19,0.00
2014-6-18,88.8,67.8,46.4,51.3,41.6,26.8,82,46,13,29.95,29.89,19,1,19,0.00
2014-6-19,88.1,66.9,44.2,57.1,49.5,41.0,92,58,25,30.00,29.92,8,1,10,0.00
2014-6-20,91.7,68.3,46.8,57.1,47.4,22.6,95,55,12,29.98,29.88,16,1,16,0.00
2014-6-21,88.7,66.3,48.8,55.7,49.0,39.6,87,58,19,29.90,29.83,9,1,9,0.00
2014-6-22,86.3,63.2,43.8,56.9,50.1,41.9,95,67,33,29.93,29.85,9,1,9,0.00
2014-6-23,92.7,68.9,47.3,58.5,51.1,43.8,94,59,24,29.95,29.85,15,1,15,0.00
2014-6-24,90.8,75.2,58.0,58.4,50.1,44.0,62,43,25,29.96,29.88,18,2,18,0.00
2014-6-25,80.8,66.0,52.7,60.5,55.5,50.3,93,70,47,29.95,29.90,17,1,17,0.00
2014-6-26,75.0,64.8,56.5,56.9,55.1,52.6,89,72,53,29.97,29.92,16,2,16,0.00
2014-6-27,81.5,67.0,53.2,62.5,56.9,50.6,94,72,50,29.97,29.89,17,2,17,0.00
2014-6-28,87.2,67.5,52.6,60.7,54.6,50.1,94,68,29,29.94,29.85,14,1,14,0.00
2014-6-29,96.5,73.0,49.5,59.5,52.5,46.6,92,55,25,29.93,29.80,14,1,14,0.00
2014-6-30,102.1,75.3,54.2,61.2,53.3,49.4,86,52,18,29.83,29.74,15,1,15,0.00
2014-7-1,84.3,66.4,50.3,60.8,54.4,47.5,92,68,44,29.85,29.77,9,1,9,0.00
2014-7-2,87.7,65.4,52.8,61.6,55.3,50.1,91,73,40,29.88,29.80,9,1,9,0.00
2014-7-3,85.3,66.4,50.8,60.7,55.6,48.9,96,72,42,29.93,29.84,9,1,9,0.00
2014-7-4,90.6,65.6,47.6,61.2,52.9,45.8,96,69,29,29.99,29.89,8,0,9,0.00
2014-7-5,95.2,64.1,42.7,58.8,49.0,37.0,96,66,14,30.08,29.98,6,1,10,0.00
2014-7-6,98.3,68.8,44.9,58.5,47.6,8.3,95,58,4,30.05,29.89,10,1,10,0.00
2014-7-7,78.7,65.0,49.7,61.6,54.9,46.9,93,71,53,29.92,29.82,6,0,6,0.00
2014-7-8,82.3,67.6,56.4,61.3,57.1,52.3,92,71,47,29.92,29.85,9,1,9,0.00
2014-7-9,86.7,65.9,52.9,62.2,55.9,50.8,94,73,43,29.96,29.83,13,2,13,0.00
2014-7-10,81.9,65.4,56.0,59.9,55.8,52.3,90,73,46,29.95,29.85,14,2,14,0.00
2014-7-11,81.2,66.3,55.0,59.7,55.2,51.1,88,70,45,30.07,29.95,13,1,13,0.00
2014-7-12,82.3,66.1,54.3,61.0,55.6,50.7,91,71,44,30.08,29.99,15,2,15,0.00
2014-7-13,96.2,69.3,50.3,63.9,56.2,48.4,95,69,31,30.02,29.85,8,0,8,0.00
2014-7-14,92.0,70.9,53.6,62.3,57.4,51.6,95,67,35,29.93,29.84,11,1,11,0.00
2014-7-15,88.3,70.2,57.0,63.6,58.1,52.9,89,68,43,30.00,29.90,18,2,18,0.00
2014-7-16,76.3,64.8,59.7,61.7,58.0,56.1,90,80,57,30.01,29.96,12,1,12,0.00
2014-7-17,79.6,65.0,58.6,61.1,57.3,55.0,91,77,52,30.02,29.94,17,1,17,0.00
2014-7-18,81.0,64.5,56.7,62.3,56.5,53.3,91,77,45,30.03,29.93,14,1,14,0.00
2014-7-19,84.0,66.2,55.6,62.2,56.8,53.1,93,74,47,29.98,29.89,14,2,14,0.00
2014-7-20,72.8,62.6,56.3,60.8,56.8,53.3,93,82,64,30.00,29.91,14,1,14,0.00
2014-7-21,79.3,66.1,56.7,62.1,58.4,53.3,92,77,53,30.07,29.98,14,1,14,0.00
2014-7-22,83.0,66.9,55.5,61.0,57.8,52.6,94,75,45,30.11,30.01,19,1,19,0.00
2014-7-23,82.9,69.9,59.3,62.5,58.9,54.6,89,70,47,30.14,30.01,13,1,13,0.00
2014-7-24,93.3,72.9,52.3,63.2,55.5,50.1,95,59,30,30.03,29.82,13,1,13,0.00
2014-7-25,100.5,75.9,53.1,58.4,50.1,40.3,86,48,17,29.89,29.80,15,1,15,0.00
2014-7-26,95.8,73.4,52.0,61.2,55.5,49.4,93,59,28,29.94,29.86,12,1,12,0.00
2014-7-27,96.0,73.8,58.8,62.2,56.2,51.3,84,58,28,29.99,29.88,10,1,10,0.00
2014-7-28,92.8,68.8,52.1,61.3,54.8,49.8,94,65,28,30.04,29.98,11,1,11,0.00
2014-7-29,95.5,71.7,52.4,60.9,54.4,49.2,94,61,25,30.06,29.94,11,1,11,0.00
2014-7-30,96.5,70.7,51.9,64.1,56.3,49.6,94,65,29,30.01,29.89,9,1,9,0.00
2014-7-31,98.0,69.1,50.7,64.2,56.2,48.8,96,69,28,29.99,29.84,5,0,6,0.00
2014-8-1,100.3,71.7,50.9,63.4,55.6,49.2,95,64,23,29.91,29.82,7,0,7,0.00
2014-8-2,89.0,65.7,51.5,62.1,54.9,48.9,94,72,38,29.95,29.85,11,1,11,0.00
2014-8-3,81.9,63.2,53.2,61.2,55.2,50.9,93,78,48,29.98,29.88,11,1,11,0.00
2014-8-4,79.2,64.0,54.8,61.0,56.2,51.9,91,77,53,30.00,29.93,10,1,10,0.00
2014-8-5,70.3,63.9,56.8,61.4,58.6,54.8,94,83,72,30.08,29.99,14,0,14,0.01
2014-8-6,93.2,73.4,60.4,65.4,60.1,54.1,94,67,33,30.03,29.90,12,1,12,0.00
2014-8-7,90.8,67.7,52.7,63.5,56.3,50.7,94,70,37,29.98,29.84,8,1,8,0.00
2014-8-8,85.3,66.6,49.5,62.1,54.8,47.8,96,70,40,29.93,29.82,10,1,10,0.00
2014-8-9,81.8,63.4,48.3,60.0,53.1,46.4,95,72,43,29.95,29.87,9,1,9,0.00
2014-8-10,81.8,63.9,50.8,60.9,55.1,48.1,93,75,48,30.02,29.92,9,1,9,0.00
2014-8-11,90.2,68.1,54.5,60.3,56.0,51.6,94,70,29,29.97,29.87,12,1,12,0.00
2014-8-12,78.0,62.3,51.8,59.0,54.5,49.6,95,78,47,30.01,29.91,13,1,13,0.00
2014-8-13,83.2,65.6,54.2,60.7,55.5,50.3,92,73,43,30.01,29.91,12,1,12,0.00
2014-8-14,86.8,64.8,49.8,61.3,54.6,48.1,96,74,37,29.98,29.87,10,1,10,0.00
2014-8-15,92.0,66.9,50.5,60.6,53.8,45.3,95,69,22,30.02,29.91,11,1,11,0.00
2014-8-16,91.3,67.3,49.0,58.7,53.4,46.8,96,67,27,30.05,29.94,11,1,11,0.00
2014-8-17,90.5,65.1,47.9,61.4,53.9,45.1,94,72,34,30.03,29.88,12,1,12,0.00
2014-8-18,84.3,64.3,51.6,62.1,55.5,49.3,95,76,45,29.91,29.77,10,0,10,0.00
2014-8-19,82.9,64.2,55.6,61.2,56.6,53.6,93,78,48,29.88,29.78,6,0,10,0.00
2014-8-20,73.5,63.2,59.1,59.5,57.3,55.4,92,82,60,29.95,29.86,13,1,13,0.00
2014-8-21,87.8,67.8,56.1,63.7,57.7,53.8,93,73,36,29.98,29.88,11,1,11,0.00
2014-8-22,84.3,64.5,52.8,61.3,55.9,50.6,94,77,42,29.95,29.84,16,1,16,0.00
2014-8-23,85.9,65.9,52.9,61.1,56.4,50.8,94,75,40,29.97,29.83,13,1,13,0.00
2014-8-24,80.6,66.1,53.4,59.8,54.8,50.1,90,70,45,29.91,29.80,14,2,14,0.00
2014-8-25,81.2,64.1,52.3,59.6,55.3,49.8,94,75,47,29.96,29.83,13,1,13,0.00
2014-8-26,85.0,67.4,55.1,61.5,56.1,51.8,92,70,43,30.02,29.91,14,1,14,0.00
2014-8-27,92.8,69.4,52.2,62.7,55.1,47.0,95,66,24,30.07,29.97,15,1,15,0.00
2014-8-28,97.0,69.0,52.2,62.9,55.1,43.8,94,68,18,30.08,29.90,12,1,12,0.00
2014-8-29,90.5,67.6,53.7,63.5,57.3,51.3,94,73,33,29.96,29.84,8,1,9,0.00
2014-8-30,95.0,72.2,52.1,58.3,53.3,42.7,95,59,18,29.91,29.79,14,1,14,0.00
2014-8-31,93.0,71.1,51.9,60.0,54.0,47.3,93,61,24,29.92,29.80,10,1,10,0.00
2014-9-1,98.5,71.8,51.9,61.8,53.4,46.8,95,60,20,29.86,29.73,11,0,11,0.00
2014-9-2,84.8,66.6,51.7,62.8,56.4,49.8,96,72,45,29.84,29.75,10,1,12,0.00
2014-9-3,87.2,64.9,55.3,61.7,56.2,52.9,93,76,41,29.82,29.68,12,1,14,0.00
2014-9-4,87.4,65.4,55.3,61.6,56.6,53.1,94,76,39,29.80,29.70,11,1,11,0.00
2014-9-5,86.8,65.5,54.9,60.6,55.5,52.1,93,73,40,29.92,29.80,11,1,12,0.00
2014-9-6,88.8,64.2,49.3,56.9,52.3,46.6,95,71,25,29.98,29.86,11,1,11,0.00
2014-9-7,87.3,62.7,50.2,55.7,51.3,47.5,94,71,27,29.91,29.78,11,1,14,0.00
2014-9-8,74.9,59.3,47.8,55.8,51.4,45.6,96,77,45,29.94,29.84,12,1,12,0.00
2014-9-9,88.5,65.0,52.2,59.4,53.9,48.6,93,72,34,30.01,29.87,10,0,10,0.00
2014-9-10,97.0,69.7,47.4,59.0,51.5,45.9,97,61,19,29.96,29.80,9,1,10,0.00
2014-9-11,99.8,71.8,49.8,57.1,48.3,36.8,90,52,13,29.91,29.79,11,1,11,0.00
2014-9-12,100.2,71.0,48.5,56.8,48.8,42.1,88,53,16,29.90,29.77,7,0,9,0.00
2014-9-13,98.6,69.7,51.8,61.1,53.5,48.7,93,62,23,29.86,29.74,9,1,9,0.00
2014-9-14,90.6,67.9,53.7,60.5,53.8,46.3,93,66,26,29.86,29.78,11,1,11,0.00
2014-9-15,84.8,64.7,50.4,57.1,51.9,47.6,94,67,32,29.92,29.82,16,1,16,0.00
2014-9-16,89.3,67.3,51.8,57.7,53.4,48.4,91,65,30,29.93,29.78,13,1,13,0.00
2014-9-17,84.4,67.9,52.8,63.0,55.6,46.9,95,69,28,29.83,29.72,10,1,16,0.00
2014-9-18,77.7,68.0,59.7,65.6,62.5,56.3,95,84,60,29.89,29.77,9,1,10,0.05
2014-9-19,84.0,67.3,53.1,64.2,58.7,51.6,97,77,44,29.92,29.83,13,1,13,0.01
2014-9-20,78.5,65.5,57.9,62.5,58.7,55.8,94,80,54,29.95,29.86,16,2,16,0.00
2014-9-21,79.0,65.3,56.4,60.4,57.1,53.7,94,77,48,30.01,29.92,13,1,13,0.00
2014-9-22,85.0,66.9,53.8,61.8,56.8,50.0,93,73,41,30.04,29.93,8,1,11,0.00
2014-9-23,84.7,65.1,48.8,63.3,56.2,46.9,96,76,46,30.01,29.89,11,1,12,0.00
2014-9-24,80.5,69.1,62.1,65.0,62.2,57.8,94,80,58,29.96,29.86,13,1,13,0.00
2014-9-25,74.7,63.1,55.7,60.8,56.6,53.6,96,81,51,30.01,29.88,12,1,12,0.24
2014-9-26,74.8,61.1,50.2,58.8,54.2,49.0,97,80,48,30.01,29.90,16,1,16,0.01
2014-9-27,79.0,63.4,52.1,58.9,54.2,49.8,94,75,40,29.93,29.80,15,1,15,0.00
2014-9-28,76.7,62.6,52.1,60.2,55.9,50.2,96,80,55,29.97,29.82,6,0,10,0.00
2014-9-29,78.8,61.1,48.6,60.0,54.1,47.2,97,80,47,30.04,29.94,11,0,12,0.00
2014-9-30,82.5,63.3,47.4,60.3,53.8,46.3,97,74,45,29.98,29.83,13,1,13,0.01
2014-10-1,92.3,71.1,52.1,53.0,38.3,20.9,85,36,8,29.94,29.84,17,2,19,0.00
2014-10-2,92.1,66.3,45.7,46.2,39.9,34.5,67,43,14,30.06,29.94,5,0,7,0.00
2014-10-3,96.4,72.1,50.2,45.1,38.9,33.4,60,35,14,30.11,30.00,9,0,9,0.00
2014-10-4,97.3,72.4,51.5,45.2,37.8,25.9,61,33,8,30.05,29.91,10,1,12,0.00
2014-10-5,98.0,71.5,50.6,48.6,41.4,33.1,60,37,16,29.97,29.86,7,0,7,0.00
2014-10-6,98.5,69.9,49.0,56.3,48.9,44.2,85,53,20,29.94,29.81,6,0,6,0.00
2014-10-7,92.0,63.8,44.9,55.4,50.1,43.0,96,67,25,29.94,29.82,8,0,8,0.00
2014-10-8,95.5,67.9,47.7,57.8,48.8,39.9,96,60,16,29.93,29.81,10,1,10,0.00
2014-10-9,85.4,62.3,46.4,57.0,51.1,44.4,96,70,36,29.98,29.89,7,0,7,0.00
2014-10-10,82.0,63.5,48.5,59.1,52.7,46.6,96,72,37,30.07,29.96,8,0,8,0.00
2014-10-11,87.7,61.3,44.2,58.1,50.7,43.0,97,74,27,30.08,29.94,4,0,8,0.00
2014-10-12,94.4,74.2,51.0,51.7,26.8,1.4,92,28,3,30.00,29.88,15,2,20,0.00
2014-10-13,89.2,67.1,50.4,54.0,37.1,21.1,91,39,13,29.98,29.88,12,1,12,0.00
2014-10-14,64.9,59.0,49.2,58.7,54.3,47.6,96,85,73,29.96,29.83,11,0,11,0.03
2014-10-15,69.9,60.9,50.2,60.5,55.2,47.1,96,82,57,30.05,29.86,7,0,7,0.27
2014-10-16,74.4,57.6,45.6,54.5,48.2,44.3,97,74,37,30.05,29.93,9,0,9,0.00
2014-10-17,73.6,58.9,45.7,57.2,51.6,44.1,96,79,51,30.00,29.93,4,0,6,0.00
2014-10-18,80.5,65.7,54.7,60.5,57.1,52.7,95,76,47,30.00,29.87,12,0,12,0.00
2014-10-19,78.7,62.4,49.7,61.7,55.9,48.6,97,81,50,29.93,29.84,10,0,10,0.00
2014-10-20,70.2,60.3,49.4,59.6,54.4,46.9,96,82,55,30.07,29.90,16,1,16,0.02
2014-10-21,73.0,57.4,43.0,51.7,47.6,41.4,96,74,36,30.13,30.00,12,1,12,0.01
2014-10-22,76.2,60.2,44.1,56.8,50.3,42.1,94,72,45,30.08,30.01,15,1,15,0.00
2014-10-23,73.5,62.4,53.4,59.9,55.7,51.0,94,80,58,30.08,29.97,11,1,11,0.00
2014-10-24,76.6,59.3,46.7,57.3,52.5,45.6,97,81,48,29.99,29.88,11,1,11,0.00
2014-10-25,69.7,60.7,50.7,60.6,55.8,49.0,97,84,64,30.15,29.88,19,1,19,0.38
2014-10-26,70.2,56.9,46.4,51.2,47.3,44.6,97,74,41,30.19,30.06,11,1,11,0.01
2014-10-27,73.7,56.1,41.7,50.3,45.7,39.8,94,72,34,30.08,30.00,11,1,11,0.00
2014-10-28,77.5,54.4,41.7,51.7,45.8,40.1,96,77,32,30.13,30.05,8,0,8,0.00
2014-10-29,81.9,61.4,47.3,54.6,50.5,45.1,94,71,37,30.13,29.99,7,0,7,0.00
2014-10-30,76.9,61.4,52.1,57.6,52.9,49.1,92,76,44,30.00,29.86,8,0,8,0.00
2014-10-31,60.5,57.0,50.0,57.7,54.1,46.6,95,90,82,29.91,29.72,6,0,7,0.23
2014-11-1,66.8,54.3,42.3,49.5,45.6,40.7,96,75,46,30.05,29.72,12,1,12,0.00
2014-11-2,69.7,54.8,39.7,48.7,43.1,38.3,96,68,36,30.18,30.04,12,1,12,0.00
2014-11-3,70.7,52.8,40.3,48.4,42.9,37.8,93,72,36,30.28,30.17,11,0,11,0.00
2014-11-4,73.3,53.9,40.4,51.3,45.4,38.3,96,76,43,30.35,30.23,8,0,8,0.00
2014-11-5,75.2,57.9,45.2,52.2,48.0,42.7,93,73,44,30.26,30.10,8,0,8,0.00
2014-11-6,78.3,59.8,47.2,55.1,50.1,44.7,92,73,41,30.24,30.16,8,0,8,0.00
2014-11-7,77.3,58.4,46.1,57.6,51.4,44.7,96,80,49,30.24,30.10,6,0,6,0.00
2014-11-8,81.0,60.3,46.4,57.2,51.0,45.3,97,76,39,30.14,30.02,6,0,6,0.01
2014-11-9,80.7,59.7,47.2,56.5,50.8,45.6,96,76,40,30.04,29.82,6,0,6,0.00
2014-11-10,76.0,57.6,45.5,56.2,50.9,44.1,97,81,47,29.86,29.79,8,1,8,0.00
2014-11-11,64.2,57.5,54.6,53.9,50.5,46.1,94,78,59,29.98,29.86,8,0,8,0.00
2014-11-12,66.0,55.9,42.2,52.1,47.2,39.8,94,74,53,30.03,29.95,7,0,7,0.04
2014-11-13,65.2,56.6,51.7,58.3,54.5,50.0,97,93,75,30.08,29.95,4,0,6,0.30
2014-11-14,66.1,54.9,44.6,55.3,49.9,43.6,97,84,62,30.12,30.04,12,1,13,0.01
2014-11-15,67.8,53.4,42.6,52.4,46.9,41.1,97,81,46,30.21,30.09,13,0,13,0.00
2014-11-16,65.8,54.1,38.3,47.4,35.2,23.8,95,52,27,30.29,30.19,13,1,13,0.00
2014-11-17,69.0,47.9,34.6,38.0,32.6,28.3,83,59,25,30.28,30.12,7,0,7,0.00
2014-11-18,66.8,51.1,37.1,41.3,36.1,29.7,77,58,36,30.17,30.05,9,1,9,0.00
2014-11-19,53.1,50.9,47.1,52.0,47.7,36.8,96,89,56,30.16,30.02,9,0,9,0.44
2014-11-20,54.9,51.5,44.4,53.7,50.5,43.6,98,96,94,30.15,29.98,10,0,10,0.78
2014-11-21,57.4,50.2,40.4,52.7,48.1,39.6,98,93,80,30.14,30.05,5,0,5,0.02
2014-11-22,68.2,58.4,47.2,61.4,52.1,42.9,98,81,50,30.27,30.02,20,2,20,1.26
2014-11-23,66.0,50.7,39.7,48.7,42.9,37.8,94,76,46,30.36,30.26,7,0,7,0.00
2014-11-24,68.8,48.7,36.5,48.7,42.0,35.2,97,80,42,30.44,30.34,5,0,5,0.00
2014-11-25,66.7,49.6,38.6,50.2,43.4,37.0,95,81,53,30.50,30.36,7,0,7,0.00
2014-11-26,68.8,50.3,37.5,50.2,43.9,36.4,97,81,49,30.36,30.23,7,0,7,0.01
2014-11-27,67.7,50.6,39.7,51.7,44.7,37.3,96,82,55,30.23,30.07,6,0,6,0.00
2014-11-28,60.6,49.2,34.8,53.9,46.2,33.6,97,90,76,30.08,29.86,6,0,6,0.24
2014-11-29,62.1,56.6,54.2,60.0,55.2,53.1,97,95,86,29.87,29.77,7,0,7,0.56
2014-11-30,59.1,53.9,50.7,54.4,51.7,49.4,97,92,78,30.05,29.75,5,0,9,0.68
2014-12-1,66.1,56.5,52.2,57.6,53.9,50.6,97,91,71,30.14,29.95,8,0,8,0.08
2014-12-2,59.7,55.1,52.8,56.2,53.5,51.3,97,95,84,29.97,29.71,15,0,15,2.18
2014-12-3,60.7,56.8,52.2,59.3,55.9,51.5,98,97,94,29.90,29.70,11,1,16,2.93
2014-12-4,62.4,55.5,49.9,60.6,54.6,49.1,98,97,89,30.03,29.89,6,0,6,0.32
2014-12-5,61.7,57.3,50.4,59.6,56.2,49.9,98,96,91,30.08,29.98,10,0,10,0.47
2014-12-6,64.3,55.7,49.0,59.1,54.2,48.2,98,95,82,30.24,30.08,7,0,7,0.09
2014-12-7,61.5,45.9,48.5,57.5,44.5,47.7,100,78,85,30.23,30.14,8,0,8,0.00
2014-12-8,63.0,46.7,52.2,58.9,45.3,51.4,100,76,79,30.20,30.14,2,0,5,0.04
2014-12-9,61.1,57.5,55.4,58.2,56.3,54.4,98,96,89,30.22,30.09,3,0,3,0.01
2014-12-10,59.2,55.4,53.0,56.9,54.5,52.3,98,97,91,30.09,29.70,15,1,15,0.88
2014-12-11,59.9,54.2,48.7,57.4,53.2,48.1,98,96,90,29.70,29.49,19,2,19,4.76
2014-12-12,53.0,47.8,40.6,50.4,46.9,39.9,98,97,90,30.10,29.66,2,0,3,0.51
2014-12-13,53.6,44.4,37.3,50.3,43.4,36.8,98,96,87,30.26,30.10,3,0,5,0.01
2014-12-14,54.6,47.9,41.8,49.1,45.5,41.3,98,92,79,30.18,30.01,10,1,10,0.19
2014-12-15,50.3,48.8,47.4,49.3,47.6,45.9,97,96,94,30.01,29.84,13,1,13,2.08
2014-12-16,56.8,50.8,44.9,53.3,49.2,44.1,98,94,83,29.97,29.82,10,1,14,1.09
2014-12-17,55.7,49.5,45.0,53.1,48.4,44.1,98,96,84,30.09,29.94,6,0,6,0.34
2014-12-18,55.5,51.4,48.5,52.6,49.9,47.5,98,95,89,30.21,30.08,4,0,4,0.12
2014-12-19,54.2,52.5,51.2,53.5,51.9,50.1,98,98,96,30.18,30.09,7,0,7,1.48
2014-12-20,56.9,53.5,49.5,55.8,52.9,49.0,98,97,95,30.25,30.14,4,0,4,0.17
2014-12-21,66.5,58.2,53.2,61.2,56.6,52.6,99,95,81,30.32,30.24,11,1,11,0.01
2014-12-22,68.0,53.8,47.4,61.4,52.4,46.7,98,95,78,30.31,30.18,5,0,5,0.01
2014-12-23,66.8,52.7,44.1,58.6,50.3,43.6,99,92,73,30.24,30.14,7,0,7,0.02
2014-12-24,57.7,49.3,43.5,54.3,45.5,36.9,98,87,70,30.14,29.93,28,3,28,0.08
2014-12-25,57.7,46.4,37.1,39.7,35.2,27.8,87,68,34,30.18,30.09,21,3,21,0.00
2014-12-26,59.7,48.3,36.0,34.7,30.0,27.3,80,51,32,30.28,30.14,16,2,20,0.00
2014-12-27,54.4,41.9,30.2,40.4,34.5,27.5,93,76,53,30.40,30.26,8,1,8,0.00
2014-12-28,59.0,43.7,35.0,47.9,39.1,33.5,97,85,61,30.40,30.24,6,0,6,0.00
2014-12-29,52.3,40.7,33.9,45.1,37.7,33.1,98,90,62,30.25,30.12,10,1,10,0.01
2014-12-30,52.1,46.2,35.4,36.6,22.1,14.2,93,41,28,30.33,30.12,32,8,32,0.00
2014-12-31,61.4,49.0,39.3,24.2,10.4,0.5,48,22,10,30.31,30.06,20,4,23,0.00
2015-1-1,53.0,38.8,28.1,34.5,28.8,9.4,92,70,17,30.20,30.07,5,1,7,0.00
2015-1-2,52.3,37.1,27.1,37.5,31.7,25.6,95,82,54,30.25,30.14,5,0,8,0.00